This demonstration page uses our WeatherBlox Daily Observations layout. Learn more.

Hourly Observations for May 5, 2016

Temp ( °F °C ) Dew Point ( °F °C ) Humidity (%) Winds ( mph kmh ) Pressure ( in mb ) Visibility ( mi km ) Precip ( " mm )
12:15 am 00:15 Clear 50 10 40 4.5 69 69 Calm 30.12 1020 10 16.0934 0 0
12:35 am 00:35 Clear 49 9.2 40 4.6 73 73 Calm 30.12 1020 10 16.0934 0 0
12:55 am 00:55 Clear 49 9.5 41 4.8 73 73 Calm 30.12 1020 10 16.0934 0 0
1:15 am 01:15 Clear 47 8.4 41 5 79 79 SE 3 6 30.12 1020 10 16.0934 0 0
1:35 am 01:35 Clear 47 8.2 38 3.6 73 73 E 6 9 30.12 1020 10 16.0934 0 0
1:55 am 01:55 Clear 50 9.9 37 2.8 62 62 ESE 6 9 30.12 1020 10 16.0934 0 0
2:15 am 02:15 Clear 48 9 38 3.5 69 69 Calm 30.12 1020 10 16.0934 0 0
2:35 am 02:35 Clear 49 9.2 37 3 65 65 Calm 30.12 1020 10 16.0934 0 0
2:55 am 02:55 Clear 44 6.4 38 3.4 81 81 W 5 7 30.15 1021 10 16.0934 0 0
3:15 am 03:15 Clear 45 7.2 38 3.2 76 76 W 5 7 30.12 1020 10 16.0934 0 0
3:35 am 03:35 Clear 46 7.7 37 2.6 70 70 Calm 30.12 1020 10 16.0934 0 0
3:55 am 03:55 Clear 44 6.6 37 2.7 76 76 Calm 30.15 1021 10 16.0934 0 0
4:15 am 04:15 Clear 43 6 37 3 81 81 Calm 30.15 1021 10 16.0934 0 0
4:35 am 04:35 Clear 44 6.8 38 3.1 78 78 Calm 30.12 1020 10 16.0934 0 0
4:55 am 04:55 Clear 41 5.1 37 2.7 85 85 Calm 30.15 1021 10 16.0934 0 0
5:15 am 05:15 Clear 43 6 37 3 81 81 Calm 30.15 1021 10 16.0934 0 0
5:35 am 05:35 Clear 42 5.5 37 3 84 84 Calm 30.15 1021 10 16.0934 0 0
5:55 am 05:55 Clear 44 6.7 37 3 78 78 Calm 30.15 1021 10 16.0934 0 0
6:15 am 06:15 Clear 43 6 37 2.8 80 80 Calm 30.15 1021 10 16.0934 0 0
6:35 am 06:35 Sunny 41 4.8 37 2.5 85 85 Calm 30.15 1021 10 16.0934 0 0
6:55 am 06:55 Sunny 42 5.4 37 3 85 85 Calm 30.15 1021 10 16.0934 0 0
7:15 am 07:15 Sunny 43 6.1 38 3.5 84 84 Calm 30.15 1021 10 16.0934 0 0
7:35 am 07:35 Sunny 46 8 42 5.5 84 84 Calm 30.12 1020 10 16.0934 0 0
7:55 am 07:55 Sunny 49 9.4 43 6.3 81 81 Calm 30.15 1021 10 16.0934 0 0
8:15 am 08:15 Sunny 53 11.6 43 6.3 70 70 Calm 30.12 1020 10 16.0934 0 0
8:35 am 08:35 Sunny 56 13.5 44 6.8 64 64 Calm 30.12 1020 10 16.0934 0 0
8:55 am 08:55 Sunny 59 14.8 40 4.7 51 51 SW 3 6 30.09 1019 10 16.0934 0 0
9:15 am 09:15 Sunny 61 16.1 38 3.4 43 43 SSW 3 6 30.09 1019 10 16.0934 0 0
9:35 am 09:35 Sunny 63 17.3 36 2 36 36 S 6 9 30.06 1018 10 16.0934 0 0
9:55 am 09:55 Sunny 65 18.5 36 2 33 33 S 7 11 30.06 1018 10 16.0934 0 0
10:15 am 10:15 Sunny 66 19.1 37 2.6 34 34 S 6 9 30.06 1018 10 16.0934 0 0
10:35 am 10:35 Sunny 67 19.6 36 2.3 32 32 S 8 13 30.06 1018 10 16.0934 0 0
10:55 am 10:55 Sunny 69 20.3 37 2.8 32 32 SSW 7 11 30.06 1018 10 16.0934 0 0
11:15 am 11:15 Sunny 69 20.7 37 2.6 30 30 S 7 11 30 1016 10 16.0934 0 0
11:35 am 11:35 Sunny 71 21.5 39 3.8 31 31 SSW 6 9 30.03 1017 10 16.0934 0 0
11:55 am 11:55 Sunny 72 22 38 3.6 30 30 SSW 10 17 30 1016 10 16.0934 0 0
12:15 pm 12:15 Sunny 72 22.3 38 3.6 29 29 S 8 13 30 1016 10 16.0934 0 0
12:35 pm 12:35 Sunny 73 22.9 39 4.1 29 29 SSW 13 20 30 1016 10 16.0934 0 0
12:55 pm 12:55 Sunny 74 23.1 40 4.6 30 30 SSW 8 13 30 1016 10 16.0934 0 0
1:15 pm 13:15 Sunny 75 23.8 41 4.9 29 29 S 8 13 30 1016 10 16.0934 0 0
1:35 pm 13:35 Sunny 75 24.1 43 6.1 31 31 SSW 8 13 29.94 1014 10 16.0934 0 0
1:55 pm 13:55 Sunny 76 24.2 42 5.7 30 30 SSW 12 19 29.94 1014 10 16.0934 0 0
2:15 pm 14:15 Sunny 76 24.5 43 6.1 31 31 SSW 8 13 29.94 1014 10 16.0934 0 0
2:35 pm 14:35 Sunny 77 24.9 44 6.5 31 31 S 9 15 29.94 1014 10 16.0934 0 0
2:55 pm 14:55 Sunny 78 25.3 44 6.8 31 31 S 13 20 29.94 1014 10 16.0934 0 0
3:15 pm 15:15 Sunny 77 25.2 44 6.6 30 30 S 13 20 29.94 1014 10 16.0934 0 0
3:35 pm 15:35 Sunny 78 25.4 44 6.9 31 31 S 9 15 29.91 1013 10 16.0934 0 0
3:55 pm 15:55 Sunny 78 25.3 44 6.7 30 30 SSE 8 13 29.91 1013 10 16.0934 0 0
4:15 pm 16:15 Sunny 78 25.5 44 6.4 29 29 S 9 15 29.91 1013 10 16.0934 0 0
4:35 pm 16:35 Sunny 78 25.6 42 5.7 28 28 S 10 17 29.91 1013 10 16.0934 0 0
4:55 pm 16:55 Sunny 78 25.7 43 6.1 29 29 S 12 19 29.91 1013 10 16.0934 0 0
5:15 pm 17:15 Sunny 78 25.5 43 6 29 29 SSW 8 13 29.91 1013 10 16.0934 0 0
5:35 pm 17:35 Sunny 78 25.4 42 5.8 28 28 S 12 19 29.91 1013 10 16.0934 0 0
5:55 pm 17:55 Sunny 78 25.5 43 6 29 29 S 9 15 29.88 1012 10 16.0934 0 0
6:15 pm 18:15 Sunny 77 25.2 43 6.1 29 29 S 12 19 29.88 1012 10 16.0934 0 0
6:35 pm 18:35 Sunny 77 25 42 5.8 29 29 S 12 19 29.88 1012 10 16.0934 0 0
6:55 pm 18:55 Sunny 76 24.6 43 6.2 31 31 S 10 17 29.88 1012 10 16.0934 0 0
7:15 pm 19:15 Sunny 76 24.2 44 6.4 32 32 S 9 15 29.88 1012 10 16.0934 0 0
7:35 pm 19:35 Sunny 75 23.7 42 5.7 31 31 S 10 17 29.88 1012 10 16.0934 0 0
7:55 pm 19:55 Sunny 73 23 44 6.5 35 35 S 9 15 29.91 1013 10 16.0934 0 0
8:15 pm 20:15 Sunny 71 21.5 46 7.9 42 42 S 7 11 29.91 1013 10 16.0934 0 0
8:35 pm 20:35 Sunny 68 20.2 46 8 46 46 SSE 7 11 29.91 1013 10 16.0934 0 0
8:55 pm 20:55 Clear 67 19.3 47 8.3 49 49 SSE 7 11 29.94 1014 10 16.0934 0 0
9:15 pm 21:15 Clear 65 18.2 47 8.6 54 54 S 7 11 29.94 1014 10 16.0934 0 0
9:35 pm 21:35 Clear 64 17.7 47 8.4 55 55 S 6 9 29.97 1015 10 16.0934 0 0
9:55 pm 21:55 Clear 62 16.8 47 8.2 57 57 SSE 7 11 29.97 1015 10 16.0934 0 0
10:15 pm 22:15 Clear 62 16.5 47 8.1 58 58 S 7 11 29.97 1015 10 16.0934 0 0
10:35 pm 22:35 Clear 61 16.2 47 8.2 59 59 SSE 6 9 30 1016 10 16.0934 0 0
10:55 pm 22:55 Clear 59 15.1 47 8.5 65 65 SSE 7 11 30 1016 10 16.0934 0 0
11:15 pm 23:15 Clear 60 15.5 46 8 61 61 S 8 13 30 1016 10 16.0934 0 0
11:35 pm 23:35 Clear 59 15 46 7.8 62 62 S 9 15 30 1016 10 16.0934 0 0
11:55 pm 23:55 Clear 59 15.2 46 7.5 60 60 SSE 9 15 30 1016 10 16.0934 0 0

Powered by AerisWeather